Regional Weather Roundup
Issued by NWS

Home | Current Version | Previous Version | Text Only | Print | Product List | Glossary On
Versions: 1 2 3 4 5 6 7 8 9 10 11 12 13 14 15 16 17 18 19 20 21 22 23 24 25 26 27 28 29 30 31 32 33 34 35 36 37 38 39 40 41 42 43 44 45 46 47 48 49 50
000
ASUS46 KPQR 050410
RWROR

OREGON REGIONAL WEATHER ROUNDUP
NATIONAL WEATHER SERVICE PORTLAND OR
900 PM PDT MON MAY 04 2015

NOTE: "FAIR" INDICATES FEW OR NO CLOUDS BELOW 12,000 FEET WITH
NO SIGNIFICANT WEATHER AND/OR OBSTRUCTIONS TO VISIBILITY.

ORZ001>013-050500-
NORTHWEST OREGON


CITY           SKY/WX    TMP DP  RH WIND       PRES   REMARKS
ASTORIA        LGT RAIN  52  48  86 S12G20    30.01S
NEWPORT        MOCLDY    50  46  87 S5        30.10R FOG
PORTLAND       MOCLDY    57  42  57 W10       30.02R
VANCOUVER WA   CLOUDY    56  41  57 W8        30.02R
SCAPPOOSE      PTCLDY    54  40  59 CALM      30.01R
HILLSBORO      CLEAR     52  42  69 SW7       30.03R
AURORA         MOCLDY    53  43  68 W7        30.03R
MCMINNVILLE    CLEAR     50  44  80 W10       30.05R
SALEM          PTCLDY    53  42  66 W8        30.04R
CORVALLIS      CLEAR     50  43  76 W12       30.06R
EUGENE         MOCLDY    54  41  61 NW7       30.06R
$$

ORZ021-028-050500-
SOUTHWEST OREGON


CITY           SKY/WX    TMP DP  RH WIND       PRES   REMARKS
NORTH BEND     PTCLDY    54  46  76 CALM      30.10S
BROOKINGS      CLEAR     52  46  79 NW7       30.06R
ROSEBURG       MOCLDY    58  42  55 N9        30.05R
SEXTON SUMMIT  CLEAR     42  36  79 MISG      30.01R
MEDFORD        CLEAR     59  42  53 N7        29.98R
$$

ORZ014>016-041-050500-
COLUMBIA GORGE


CITY           SKY/WX    TMP DP  RH WIND       PRES   REMARKS
TROUTDALE      CLOUDY    58  40  51 W10       30.01R
THE DALLES     PTCLDY    60  40  47 NW12      29.92R
$$

ORZ029>031-041-044-049-050-061>064-502-503-505>511-050500-
EASTERN OREGON


CITY           SKY/WX    TMP DP  RH WIND       PRES   REMARKS
REDMOND        CLEAR     52  35  52 NW14      29.94R
BEND           CLEAR     50  30  46 N8        29.95
PRINEVILLE     CLEAR     52  34  50 NW14G21   29.95R
KLAMATH FALLS  CLEAR     54  36  50 W7        29.95R
LAKEVIEW       CLOUDY    57  23  26 NW3       29.94R
HERMISTON      PTCLDY    60  37  42 SW15G22   29.86R
PENDLETON      PTCLDY    58  31  35 W21G26    29.86R
JOHN DAY       PTCLDY    60  37  42 CALM      29.89R
MEACHAM        PTCLDY    53  27  36 CALM      29.93R
LA GRANDE      MOCLDY    63  28  27 W23G29    29.84R
BAKER CITY     PTCLDY    57  37  47 NW12      29.84R
BURNS          CLEAR     61  26  26 W14       29.86R
ROME             N/A     67  29  24 NW10      29.81R
ONTARIO        PTCLDY    67  42  40 W3        29.71R
$$


USA.gov is the U.S. government's official web portal to all federal, state and local government web resources and services.